This is the latest recevied weather packets stored in our database for station/object HB9GPU-10. If no packets are shown the sender has not sent any weather packets the latest 10 day(s).
| Time | Temp. | Humidity | Pressure | Rain* | Wind** | Luminosity | Snow |
|---|---|---|---|---|---|---|---|
| 1788511757 | 24.44° C | 32% | 1025.7 hPa | - | - | - | - |
| 1788510854 | 25° C | 31% | 1025.6 hPa | - | - | - | - |
| 1788509954 | 24.44° C | 32% | 1025.8 hPa | - | - | - | - |
| 1788509054 | 23.89° C | 33% | 1026 hPa | - | - | - | - |
| 1788508154 | 23.33° C | 34% | 1026.1 hPa | - | - | - | - |
| 1788507254 | 23.89° C | 32% | 1026.2 hPa | - | - | - | - |
| 1788506353 | 23.89° C | 33% | 1026.2 hPa | - | - | - | - |
| 1788505453 | 23.89° C | 32% | 1026.2 hPa | - | - | - | - |
| 1788504553 | 23.89° C | 33% | 1026.4 hPa | - | - | - | - |
| 1788503653 | 23.33° C | 32% | 1026.5 hPa | - | - | - | - |
| 1788502753 | 23.33° C | 33% | 1026.6 hPa | - | - | - | - |
| 1788501852 | 23.33° C | 34% | 1026.6 hPa | - | - | - | - |
| 1788500952 | 22.78° C | 34% | 1026.7 hPa | - | - | - | - |
| 1788500052 | 22.78° C | 33% | 1026.8 hPa | - | - | - | - |
| 1788499152 | 22.78° C | 33% | 1026.9 hPa | - | - | - | - |
| 1788498252 | 23.33° C | 33% | 1027 hPa | - | - | - | - |
| 1788497351 | 22.78° C | 34% | 1026.9 hPa | - | - | - | - |
| 1788496451 | 23.33° C | 33% | 1026.8 hPa | - | - | - | - |
| 1788495551 | 23.33° C | 33% | 1026.8 hPa | - | - | - | - |
| 1788494651 | 22.78° C | 33% | 1027 hPa | - | - | - | - |
| 1788493751 | 23.33° C | 34% | 1027.1 hPa | - | - | - | - |
| 1788492851 | 23.33° C | 33% | 1027.3 hPa | - | - | - | - |
| 1788491950 | 22.78° C | 34% | 1027.3 hPa | - | - | - | - |
| 1788491050 | 23.33° C | 33% | 1027.5 hPa | - | - | - | - |
| 1788490150 | 23.33° C | 34% | 1027.4 hPa | - | - | - | - |
* Rain since midnight (hover to see other rain measurements)
** Current wind speed in m/s (hover to see current wind gust speed)